Location: NJAA Observatory
(40.6819°N, 74.8979°W)
Time: 19:14:26
(UTC-05:00)

Transit 2A Rocket - Visible Passes

Search period start: 10 December 2016 00:00
Search period end: 20 December 2016 00:00
Orbit: 591 x 914 km, 66.7° (Epoch: 09 December)

Date Brightness Start Highest point End Pass type
(mag) Time Alt. Az. Time Alt. Az. Time Alt. Az.
10 Dec 6.9 04:10:56 20° ESE 04:10:56 20° ESE 04:12:21 10° SE visible
10 Dec 6.3 05:50:54 15° WSW 05:50:54 15° WSW 05:52:53 10° SW visible
10 Dec 5.6 18:36:50 10° S 18:41:45 42° SE 18:41:45 42° SE visible
10 Dec 7.6 20:20:03 10° WSW 20:21:43 17° W 20:21:43 17° W visible
11 Dec 6.4 05:10:32 18° SSW 05:10:32 18° SSW 05:11:56 10° S visible
11 Dec 6.1 17:55:24 10° SSE 18:00:09 26° ESE 18:01:19 24° E visible
11 Dec 6.3 19:36:58 10° SW 19:41:17 41° W 19:41:17 41° W visible
12 Dec 6.8 17:14:53 10° SE 17:18:02 15° ESE 17:20:48 11° ENE visible
12 Dec 5.1 18:54:18 10° SSW 19:00:07 79° WNW 19:00:46 68° N visible
12 Dec 8.0 20:40:25 10° WNW 20:40:44 11° WNW 20:40:44 11° WNW visible
13 Dec 5.1 18:12:02 10° SSW 18:17:47 63° ESE 18:20:10 33° NE visible
13 Dec 7.2 19:56:22 10° W 20:00:07 22° WNW 20:00:07 22° WNW visible
14 Dec 5.8 17:30:14 10° S 17:35:32 37° ESE 17:39:30 15° NE visible
14 Dec 6.4 19:12:57 10° WSW 19:18:09 35° NW 19:19:27 31° NNW visible
15 Dec 5.7 18:29:59 10° SW 18:35:39 56° WNW 18:38:42 25° NNE visible
15 Dec 7.9 20:17:57 10° NW 20:18:38 11° NW 20:18:38 11° NW visible
16 Dec 5.1 17:47:26 10° SSW 17:53:15 89° ESE 17:57:52 14° NNE visible
16 Dec 7.3 19:32:59 10° W 19:36:28 17° NW 19:37:49 15° NNW visible
17 Dec 5.4 17:05:19 10° S 17:10:57 53° ESE 17:16:10 10° NE visible
17 Dec 6.9 18:49:09 10° WSW 18:53:47 25° NW 18:56:55 15° N visible
18 Dec 6.2 18:05:53 10° WSW 18:11:13 40° NW 18:15:58 11° NNE visible
19 Dec 5.5 17:23:03 10° SW 17:28:46 66° WNW 17:34:01 10° NNE visible
19 Dec 7.5 19:10:04 10° WNW 19:12:15 12° NW 19:14:23 10° NNW visible
